Zurück zum Katalog

COSMOS 2251 DEB

AktivLEO
NORAD 39591·DEBRIS·🇷🇺 Russia

Gestartet Jun 16, 1993 von Plesetsk Cosmodrome

Loading…

Nächste Überflüge (nächste 24 Stunden)

TLE

AktuellSource: Space-Track

Epoche: Sep 14, 2026, 05:58 UTC

1 39591U 93036BUW 26257.24915600  .00000601  00000-0  18880-3 0  9992
2 39591  74.0168  95.4100 0029474 144.9725 336.9731 14.42405019657484

Verfolge COSMOS 2251 DEB in Echtzeit mit AllMySat

Download on the App Store